Voltar ao catálogo

STARLINK-35441

AtivoComunicaçõesVLEO
NORAD 65869·PAYLOAD·🇺🇸 United States

Lançado Oct 3, 2025 de Vandenberg Space Force Base

Loading…

Próximas Passagens (próximas 24 horas)

TLE

AtualizadoSource: CelesTrak SupGP

Época: Sep 14, 2026, 21:13 UTC

1 65869C 25223R   26257.88451389 -.00055551  00000+0 -16413-2 0  2572
2 65869  53.1574 131.9616 0001346  87.6506 160.9673 15.34417352    12

Acompanhe STARLINK-35441 em tempo real com AllMySat

Download on the App Store